Flag for Germany Weather past 2 weeks in Schönebeck, Saxony-Anhalt, Germany

Now
55 °F

Overcast.


Feels Like: 55 °F
Forecast: 44 / 50 °F
Wind: 3 mph from South

Location: Magdeburg

Current Time: Oct 21, 2014 at 7:01:41 PM

Latest Report: Oct 21, 2014 at 6:00 PM


Visibility: 25 mi

Pressure: 29.50 "Hg

Humidity: 77%

Dew point: 48 °F

Location of SchönebeckLocation

Historic Weather in Schönebeck — Graph

°F

Schönebeck temperature yesterday

Maximum temperature yesterday: 62 °F (at 3:00 PM)
Minimum temperature yesterday: 55 °F (at 9:00 PM)
Average temperature yesterday: 58 °F

Past Weeks' High & Low Weather Summary

 TemperatureHumidityPressure
High74 °F (Oct 19, 3:00 PM)98% (Oct 11, 7:00 AM)30.21 "Hg (Oct 11, 7:00 AM)
Low48 °F (Oct 16, 3:00 AM)54% (Oct 14, 4:00 PM)29.50 "Hg (Oct 21, 6:00 PM)
Average58 °F85%29.86 "Hg
* Reported Oct 6 6:00 PM — Oct 21 6:00 PM, Schönebeck, Weather by CustomWeather, © 2014

Note: Actual official high and low records may vary slightly from our data, if they occured in-between our weather recording intervals... More about our weather records

Advertising

Schönebeck weather history for previous 24 hours

 ConditionsComfort  
Time TempWeatherWind HumidityBarometerVisibility
6:00 PM
Oct 21
55 °FOvercast.3 mph77%29.50 "Hg25 mi
4:00 PM55 °FOvercast.5 mph78%29.60 "Hg19 mi
3:00 PM57 °FLight rain. Overcast.6 mph70%29.64 "Hg19 mi
2:00 PM58 °FOvercast.6 mph67%29.66 "Hg37 mi
1:00 PM59 °FOvercast.5 mph69%29.70 "Hg28 mi
12:00 PM58 °FOvercast.6 mph72%29.73 "Hg22 mi
10:00 AM54 °FOvercast.3 mphN/A29.77 "Hg12 mi
9:00 AM53 °FOvercast.3 mph87%29.80 "Hg12 mi
8:00 AM52 °FOvercast.2 mph88%29.80 "Hg9 mi
7:00 AM52 °FOvercast.2 mph88%29.82 "Hg9 mi
6:00 AM52 °FOvercast.2 mph88%29.84 "Hg9 mi
4:00 AM52 °FOvercast.2 mph90%29.87 "Hg6 mi
3:00 AM54 °FOvercast.2 mph89%29.88 "Hg8 mi
2:00 AM54 °FOvercast.2 mph88%29.88 "Hg9 mi
1:00 AM54 °FOvercast.3 mph89%29.89 "Hg11 mi
12:00 AM55 °FLight rain. Overcast.2 mph86%29.89 "Hg12 mi
11:00 PM
Oct 20
55 °FOvercast.2 mph88%29.91 "Hg13 mi
10:00 PM55 °FOvercast.3 mph89%29.92 "Hg11 mi
9:00 PM55 °FOvercast.3 mph91%29.92 "Hg12 mi
8:00 PM56 °FPassing clouds.3 mph87%29.93 "Hg16 mi
7:00 PM56 °FPassing clouds.2 mph87%29.93 "Hg16 mi
Weather by CustomWeather, © 2014

See weather overviewHow to use our weather pages